Regional Weather Roundup
Issued by NWS Lake Charles, LA

Current Version | Previous Version | Text Only | Print | Product List | Glossary On
Versions: 1 2 3 4 5 6 7 8 9 10 11 12 13 14 15 16 17 18 19 20 21 22 23 24 25 26 27 28 29 30 31 32 33 34 35 36 37 38 39 40 41 42 43 44 45 46 47 48 49 50
000
ASUS44 KLCH 272010
RWRLCH
RWRLCH
REGIONAL WEATHER ROUNDUP
NATIONAL WEATHER SERVICE LAKE CHARLES LA
300 PM CDT FRI MAR 27 2015

Note: "fair" indicates few or no clouds below 12,000 feet with no
significant weather and/or obstructions to visibility.


ACROSS SOUTHEAST TEXAS

CITY           SKY/WX    TMP DP  RH WIND       PRES   REMARKS
BEAUMONT       SUNNY     76  39  26 NW9G20    30.08F
BEAUMONT CITY    N/A     75  41  30 W13       30.09F
ORANGE         CLEAR     74  29  19 NW9       30.10F
JASPER         SUNNY     75  40  27 N14G22    30.11F
$$

ACROSS CENTRAL LOUISIANA

CITY           SKY/WX    TMP DP  RH WIND       PRES   REMARKS
LEESVILLE      SUNNY     72  38  29 NW15G21   30.05F
FULLERTON        N/A     75  36  24 VRB6      30.02F
ALEXANDRIA INT SUNNY     71  40  32 NW15G23   30.03F
ESLER FIELD    MOSUNNY   71  36  27 NW9G20    30.04F
DERIDDER         N/A     73  34  24 W6G20     30.09F
OAKDALE        CLEAR     73  35  24 W15       30.05F
OPELOUSAS        N/A     69  42  37 NW10G18   30.05F
$$

ACROSS SOUTHWEST AND SOUTH CENTRAL LOUISIANA

CITY           SKY/WX    TMP DP  RH WIND       PRES   REMARKS
SULPHUR        CLEAR     76  38  26 NW15      30.09F
LAKE CHARLES   SUNNY     74  37  26 NW15G24   30.07F
CHENNAULT INT  SUNNY     72  39  30 MISG      30.08F
CAMERON PHI    NOT AVBL
DEQUINCY         N/A     73  37  27 NW14G20   30.08F
JENNINGS         N/A     71  40  32 NW15G22   30.07F
LAFAYETTE      SUNNY     69  43  38 NW16G23   30.07F
NEW IBERIA     SUNNY     69  41  36 NW14G22   30.07F
ABBEVILLE        N/A     69  42  38 W17       30.08F
PATTERSON      SUNNY     68  37  32 NW16G22   30.07F
SALT POINT       N/A     66  47  50 W9        30.06F
$$

SELECTED SITES ACROSS THE REGION

CITY           SKY/WX    TMP DP  RH WIND       PRES   REMARKS
HOUSTON BUSH   SUNNY     77  36  22 NW13G22   30.10F
HOUSTON HOBBY  SUNNY     77  35  21 NW15G21   30.11F
GALVESTON      SUNNY     74  44  34 W8        30.13F
COLLEGE STAT   SUNNY     76  40  27 NW15G21   30.12F
CONROE         SUNNY     76  32  20 NW10      30.11F
HUNTSVILLE     SUNNY     77  38  24 NW10      30.10F
LUFKIN         SUNNY     77  38  24 W13       30.09F
SHREVEPORT     PTSUNNY   65  37  35 NW20      30.10R
MONROE         MOSUNNY   67  40  37 NW14G23   30.05F
NATCHEZ MS     SUNNY     64  39  39 W7        30.05F
BATON ROUGE    SUNNY     67  36  31 W14G23    30.05F
N.O. INTL ARPT MOSUNNY   67  36  31 NW15G21   30.04F
SLIDELL        SUNNY     69  34  27 NW9       30.01F
$$

MARINE REPORTS

STATION/POSITION TIME  TEMP    WIND        PRES    VSBY  WAVE
                       AIR SEA DIR/SP/G                  HT/PER
                 (UTC) (F)     (DEG/KT/KT) (MB)    (MI)  (FT/S)
BUOY 30 S HIGH I 1950   63 65  270/  6/ 10 1020.0F         1
SEA RIM ST PARK  2000   72     300/  8/ 12 1019.6F
PORT ARTHUR      1900      67  300/ 11/ 14 1019.9F
SABINE PASS N    1900   68 67  330/  9/ 14 1020.2F
TEXAS POINT      NOT AVBL
CALCASIEU PASS   1900   66 67  320/ 10/ 13   N/A
LK CHARLES BEACH 1900   69 67              1019.2F
MARSH ISLAND     NOT AVBL
FRESH WATER LOCK 1900   65 65  310/ 13/ 16 1019.3F
AMERADA PASS     1900          250/  6/ 11   N/A
$$


USA.gov is the U.S. government's official web portal to all federal, state and local government web resources and services.